Location: Hradec Kralove
(50.2170°N, 15.8330°E)
Time: 03:12:50
(UTC+01:00)

N. Korean satellite - Pass Details

Date: 03 December 2022
Orbit: 407 x 442 km, 97.3° (Epoch: 05 February)

Event Time Altitude Azimuth Distance (km) Brightness Sun altitude
Rises 06:36:57 0° 358° (N) 2,529 9.9 -9.2°
Reaches altitude 10° 06:39:39 10° 335° (NNW) 1,642 8.8 -8.8°
Maximum altitude 06:41:47 15° 298° (WNW) 1,332 8.1 -8.5°
Drops below altitude 10° 06:43:54 10° 261° (W) 1,623 8.7 -8.2°
Sets 06:46:32 0° 238° (WSW) 2,484 9.8 -7.8°
